Content
SEND FEEDBACK

United States of America Flag

UPI, GUAM


Home > North America > United States > Guam
Elevation: 53 feet     Latitude: 13 34N     Longitude: 144 55E

WEATHER
 
SELECT A DAY
Number of Records: 230,131;   Date Range: 1/1/95 - 3/22/16
 
SHARE

PRINT THIS DATA

[ ← Previous Day ]
WEATHER ALMANAC - OCTOBER 30, 2013
[ Next Day → ]
[ °C ]   °F
Weather ElementAverageHighLow
Temperature83.1 °F87.8 °F (1:19 pm)79 °F (3:54 am)
Dewpoint76 °F77 °F (4:54 am)75 °F (1:54 pm)
Humidity79.5 %90 % (3:54 am)66 % (1:19 pm)
Barometer29.89 in29.94 in (8:54 pm)29.83 in (2:54 pm)
Wind Speed8.9 mph15 mph (11:54 am)
Wind Gust20.7 mph (10:54 am)
Weather ElementAverage
Visibility10 mi
Wind DirectionE (84.8 °)

Weather ElementTotal
Precipitation---
Cooling Degree Days18.4 (Base 65)
Growing Degree Days33.4 (Base 50)
Averaged from 25 records on October 30, 2013
WEATHER CONDITIONS BREAKOUT
WIND DIRECTION BREAKOUT
WEATHER BY HOUR - OCTOBER 30, 2013
[ °C ]   °F
Local TimeTemperatureDewpointHumidityBarometerVisibilityWind DirectionWind SpeedGust SpeedPrecipitationEventsConditions
1:54 AM80.1 °F75.9 °F87 %29.89 in10.0 miEast (90°)5.8 mphPartly Cloudy
2:54 AM80.1 °F75.9 °F87 %29.88 in10.0 miENE (60°)4.6 mphClear
3:54 AM79.0 °F75.9 °F90 %29.88 in10.0 miEast (80°)3.5 mphClear
4:54 AM80.1 °F77.0 °F90 %29.88 in10.0 miEast (80°)5.8 mphClear
5:54 AM79.0 °F75.9 °F90 %29.89 in10.0 miEast (80°)9.2 mphClear
6:54 AM80.1 °F75.9 °F87 %29.91 in10.0 miEast (90°)6.9 mphClear
7:54 AM82.9 °F77.0 °F82 %29.92 in10.0 miEast (100°)12.7 mphClear
8:54 AM84.0 °F75.9 °F76 %29.92 in10.0 miESE (110°)13.8 mphPartly Cloudy
9:54 AM84.9 °F75.9 °F74 %29.92 in10.0 miEast (100°)12.7 mphPartly Cloudy
10:54 AM86.0 °F75.9 °F72 %29.91 in10.0 miEast (100°)13.8 mph20.7 mphPartly Cloudy
11:54 AM87.1 °F75.9 °F69 %29.88 in10.0 miEast (80°)15.0 mph20.7 mphScattered Clouds
12:02 PM86.0 °F77.0 °F74 %29.90 in10.0 miEast (100°)11.5 mph20.7 mphMostly Cloudy
12:54 PM87.1 °F75.9 °F69 %29.86 in10.0 miEast (80°)12.7 mph18.4 mphMostly Cloudy
1:19 PM87.8 °F75.2 °F66 %29.88 in10.0 miEast (90°)12.7 mphScattered Clouds
1:54 PM87.1 °F75.0 °F67 %29.85 in10.0 miEast (90°)11.5 mphPartly Cloudy
2:54 PM86.0 °F75.0 °F70 %29.83 in10.0 miEast (100°)9.2 mphPartly Cloudy
3:54 PM86.0 °F75.0 °F70 %29.84 in10.0 miEast (90°)11.5 mphPartly Cloudy
4:54 PM84.0 °F75.9 °F76 %29.85 in10.0 miEast (90°)9.2 mphClear
5:54 PM82.0 °F77.0 °F85 %29.87 in10.0 miEast (80°)5.8 mphClear
6:54 PM82.0 °F77.0 °F85 %29.89 in10.0 miEast (90°)5.8 mphPartly Cloudy
7:54 PM82.0 °F75.9 °F82 %29.92 in10.0 miEast (80°)5.8 mphPartly Cloudy
8:54 PM82.0 °F75.0 °F79 %29.94 in10.0 miENE (60°)6.9 mph0.00 inClear
9:54 PM81.0 °F75.9 °F85 %29.94 in10.0 miENE (60°)6.9 mphClear
10:54 PM81.0 °F77.0 °F88 %29.93 in10.0 miENE (60°)5.8 mphClear
11:54 PM81.0 °F77.0 °F88 %29.91 in10.0 miEast (80°)4.6 mphClear
Hourly data recorded from PGUM, located miles away from Upi, Guam




STORIES FROM OUR PARTNERS